Time,TemperatureF,DewpointF,PressureIn,WindDirection,WindDirectionDegrees,WindSpeedMPH,WindSpeedGustMPH,Humidity,HourlyPrecipIn,Conditions,Clouds,dailyrainin,SolarRadiationWatts/m^2,SoftwareType,DateUTC
2013-03-26 00:00:00,52.7,28.5,30.32,North,0,4.0,9.0,39,0.00,,,0.00,0.00,VWS V14.00,2013-03-26 05:00:00,
2013-03-26 00:15:00,52.9,26.7,30.32,North,0,5.0,11.0,36,0.00,,,0.00,0.00,VWS V14.00,2013-03-26 05:15:00,
2013-03-26 00:30:00,52.3,26.8,30.32,North,0,5.0,11.0,37,0.00,,,0.00,0.00,VWS V14.00,2013-03-26 05:30:00,
2013-03-26 00:45:00,51.5,27.4,30.32,North,0,5.0,10.0,39,0.00,,,0.00,0.00,VWS V14.00,2013-03-26 05:45:00,
2013-03-26 01:00:00,51.5,28.0,30.32,North,0,6.0,15.0,40,0.00,,,0.00,0.00,VWS V14.00,2013-03-26 06:00:00,
2013-03-26 01:15:00,51.5,28.6,30.32,North,0,6.0,15.0,41,0.00,,,0.00,0.00,VWS V14.00,2013-03-26 06:15:00,
2013-03-26 01:30:00,51.5,29.2,30.33,North,0,6.0,16.0,42,0.00,,,0.00,0.00,VWS V14.00,2013-03-26 06:30:00,
2013-03-26 01:45:00,51.6,29.9,30.33,NNE,22,5.0,12.0,43,0.00,,,0.00,0.00,VWS V14.00,2013-03-26 06:45:00,
2013-03-26 02:00:00,51.7,30.5,30.33,NNE,22,6.0,14.0,44,0.00,,,0.00,0.00,VWS V14.00,2013-03-26 07:00:00,
2013-03-26 02:15:00,50.9,30.9,30.33,North,0,5.0,10.0,46,0.00,,,0.00,0.00,VWS V14.00,2013-03-26 07:15:00,
2013-03-26 02:30:00,50.9,30.3,30.33,NNE,22,5.0,13.0,45,0.00,,,0.00,0.00,VWS V14.00,2013-03-26 07:30:00,
2013-03-26 02:45:00,50.6,30.1,30.33,NNE,22,5.0,12.0,45,0.00,,,0.00,0.00,VWS V14.00,2013-03-26 07:45:00,
2013-03-26 03:00:00,50.3,29.8,30.33,NNE,22,5.0,11.0,45,0.00,,,0.00,0.00,VWS V14.00,2013-03-26 08:00:00,
2013-03-26 03:15:00,49.8,29.9,30.33,NNE,22,5.0,13.0,46,0.00,,,0.00,0.00,VWS V14.00,2013-03-26 08:15:00,
2013-03-26 03:30:00,50.0,29.0,30.33,NNE,22,6.0,13.0,44,0.00,,,0.00,0.00,VWS V14.00,2013-03-26 08:30:00,
2013-03-26 03:45:00,49.6,29.1,30.33,NNE,22,5.0,12.0,45,0.00,,,0.00,0.00,VWS V14.00,2013-03-26 08:45:00,
2013-03-26 04:00:00,49.4,29.0,30.33,NNE,22,4.0,12.0,45,0.00,,,0.00,0.00,VWS V14.00,2013-03-26 09:00:00,
2013-03-26 04:15:00,49.1,29.2,30.34,NNE,22,4.0,10.0,46,0.00,,,0.00,0.00,VWS V14.00,2013-03-26 09:15:00,
2013-03-26 04:30:00,48.8,29.5,30.34,NNE,22,4.0,13.0,47,0.00,,,0.00,0.00,VWS V14.00,2013-03-26 09:30:00,
2013-03-26 04:45:00,48.8,29.0,30.34,NNE,22,5.0,12.0,46,0.00,,,0.00,0.00,VWS V14.00,2013-03-26 09:45:00,
2013-03-26 05:00:00,48.6,28.2,30.34,NNE,22,5.0,11.0,45,0.00,,,0.00,0.00,VWS V14.00,2013-03-26 10:00:00,
2013-03-26 05:15:00,48.5,28.1,30.34,NNE,22,5.0,12.0,45,0.00,,,0.00,0.00,VWS V14.00,2013-03-26 10:15:00,
2013-03-26 05:30:00,47.6,28.9,30.34,NNE,22,5.0,12.0,48,0.00,,,0.00,0.00,VWS V14.00,2013-03-26 10:30:00,
2013-03-26 05:45:00,46.8,29.6,30.35,NNE,22,4.0,10.0,51,0.00,,,0.00,0.00,VWS V14.00,2013-03-26 10:45:00,
2013-03-26 06:00:00,45.4,29.7,30.35,NNE,22,2.0,6.0,54,0.00,,,0.00,0.00,VWS V14.00,2013-03-26 11:00:00,
2013-03-26 06:30:00,44.5,29.4,30.36,ENE,68,2.0,6.0,55,0.00,,,0.00,0.00,VWS V14.00,2013-03-26 11:30:00,
2013-03-26 06:45:00,44.4,29.3,30.36,NE,45,3.0,7.0,55,0.00,,,0.00,0.00,VWS V14.00,2013-03-26 11:45:00,
2013-03-26 07:00:00,45.2,29.1,30.37,NE,45,3.0,9.0,53,0.00,,,0.00,0.00,VWS V14.00,2013-03-26 12:00:00,
2013-03-26 07:15:00,45.6,29.5,30.38,NE,45,4.0,10.0,53,0.00,,,0.00,0.00,VWS V14.00,2013-03-26 12:15:00,
2013-03-26 07:30:00,45.8,30.1,30.39,NE,45,3.0,7.0,54,0.00,,,0.00,5.00,VWS V14.00,2013-03-26 12:30:00,
2013-03-26 07:45:00,46.4,28.3,30.40,NNE,22,5.0,10.0,49,0.00,,,0.00,16.00,VWS V14.00,2013-03-26 12:45:00,
2013-03-26 08:00:00,46.5,27.9,30.40,NNE,22,6.0,12.0,48,0.00,,,0.00,28.00,VWS V14.00,2013-03-26 13:00:00,
2013-03-26 08:15:00,47.1,27.4,30.41,NNE,22,7.0,14.0,46,0.00,,,0.00,89.00,VWS V14.00,2013-03-26 13:15:00,
2013-03-26 08:30:00,48.0,29.3,30.42,NNE,22,5.0,11.0,48,0.00,,,0.00,197.00,VWS V14.00,2013-03-26 13:30:00,
2013-03-26 08:45:00,48.1,29.4,30.42,NE,45,5.0,11.0,48,0.00,,,0.00,265.00,VWS V14.00,2013-03-26 13:45:00,
2013-03-26 09:00:00,48.5,29.2,30.43,NE,45,6.0,12.0,47,0.00,,,0.00,326.00,VWS V14.00,2013-03-26 14:00:00,
2013-03-26 09:15:00,50.2,28.0,30.43,NE,45,5.0,12.0,42,0.00,,,0.00,387.00,VWS V14.00,2013-03-26 14:15:00,
2013-03-26 09:30:00,52.0,27.8,30.44,NNE,22,5.0,13.0,39,0.00,,,0.00,446.00,VWS V14.00,2013-03-26 14:30:00,
2013-03-26 09:45:00,53.7,27.4,30.43,NE,45,5.0,10.0,36,0.00,,,0.00,503.00,VWS V14.00,2013-03-26 14:45:00,
2013-03-26 10:00:00,55.3,26.7,30.44,NNE,22,4.0,10.0,33,0.00,,,0.00,556.00,VWS V14.00,2013-03-26 15:00:00,
2013-03-26 10:15:00,56.1,28.1,30.44,NE,45,4.0,10.0,34,0.00,,,0.00,608.00,VWS V14.00,2013-03-26 15:15:00,
2013-03-26 10:30:00,57.7,28.1,30.44,NE,45,3.0,9.0,32,0.00,,,0.00,657.00,VWS V14.00,2013-03-26 15:30:00,
2013-03-26 10:45:00,58.2,26.1,30.44,NE,45,4.0,9.0,29,0.00,,,0.00,703.00,VWS V14.00,2013-03-26 15:45:00,
2013-03-26 11:00:00,59.1,26.0,30.44,East,90,3.0,9.0,28,0.00,,,0.00,746.00,VWS V14.00,2013-03-26 16:00:00,
2013-03-26 11:15:00,59.2,27.0,30.44,NE,45,4.0,10.0,29,0.00,,,0.00,785.00,VWS V14.00,2013-03-26 16:15:00,
2013-03-26 11:30:00,60.2,25.2,30.44,NE,45,3.0,9.0,26,0.00,,,0.00,822.00,VWS V14.00,2013-03-26 16:30:00,
2013-03-26 11:45:00,61.1,25.0,30.43,NNE,22,3.0,7.0,25,0.00,,,0.00,854.00,VWS V14.00,2013-03-26 16:45:00,
2013-03-26 12:00:00,61.2,26.1,30.42,NNE,22,3.0,10.0,26,0.00,,,0.00,882.00,VWS V14.00,2013-03-26 17:00:00,
2013-03-26 12:15:00,61.5,28.1,30.42,NNE,22,2.0,10.0,28,0.00,,,0.00,907.00,VWS V14.00,2013-03-26 17:15:00,
2013-03-26 12:30:00,62.2,25.0,30.41,NNE,22,4.0,15.0,24,0.00,,,0.00,925.00,VWS V14.00,2013-03-26 17:30:00,
2013-03-26 12:45:00,62.5,28.1,30.40,NE,45,4.0,13.0,27,0.00,,,0.00,939.00,VWS V14.00,2013-03-26 17:45:00,
2013-03-26 13:00:00,63.2,26.8,30.40,NNE,22,4.0,13.0,25,0.00,,,0.00,950.00,VWS V14.00,2013-03-26 18:00:00,
2013-03-26 13:15:00,63.6,27.2,30.39,NNE,22,4.0,10.0,25,0.00,,,0.00,957.00,VWS V14.00,2013-03-26 18:15:00,
2013-03-26 13:30:00,64.1,26.6,30.38,North,0,4.0,13.0,24,0.00,,,0.00,958.00,VWS V14.00,2013-03-26 18:30:00,
2013-03-26 13:45:00,64.3,29.6,30.37,NNE,22,4.0,14.0,27,0.00,,,0.00,955.00,VWS V14.00,2013-03-26 18:45:00,
2013-03-26 14:00:00,66.0,29.2,30.37,North,0,3.0,10.0,25,0.00,,,0.00,951.00,VWS V14.00,2013-03-26 19:00:00,
2013-03-26 14:15:00,65.5,26.8,30.36,NNE,19,3.0,9.0,23,0.00,,,0.00,935.00,VWS V14.00,2013-03-26 19:15:00,
2013-03-26 14:30:00,66.2,29.4,30.34,NNW,338,2.0,9.0,25,0.00,,,0.00,927.00,VWS V14.00,2013-03-26 19:30:00,
2013-03-26 14:45:00,65.9,26.0,30.34,North,0,5.0,14.0,22,0.00,,,0.00,904.00,VWS V14.00,2013-03-26 19:45:00,
2013-03-26 15:00:00,64.6,29.0,30.33,NNE,22,4.0,14.0,26,0.00,,,0.00,878.00,VWS V14.00,2013-03-26 20:00:00,
2013-03-26 15:15:00,65.9,26.0,30.32,North,0,3.0,11.0,22,0.00,,,0.00,848.00,VWS V14.00,2013-03-26 20:15:00,
2013-03-26 15:30:00,67.1,29.1,30.32,NW,315,3.0,11.0,24,0.00,,,0.00,818.00,VWS V14.00,2013-03-26 20:30:00,
2013-03-26 15:45:00,67.2,28.2,30.31,NW,315,3.0,11.0,23,0.00,,,0.00,781.00,VWS V14.00,2013-03-26 20:45:00,
2013-03-26 16:00:00,66.0,25.0,30.30,North,0,5.0,12.0,21,0.00,,,0.00,739.00,VWS V14.00,2013-03-26 21:00:00,
2013-03-26 16:15:00,67.4,30.4,30.29,NNW,338,4.0,12.0,25,0.00,,,0.00,699.00,VWS V14.00,2013-03-26 21:15:00,
2013-03-26 16:30:00,67.4,30.4,30.29,NNW,338,2.0,8.0,25,0.00,,,0.00,655.00,VWS V14.00,2013-03-26 21:30:00,
2013-03-26 16:45:00,66.3,27.4,30.28,North,0,4.0,10.0,23,0.00,,,0.00,606.00,VWS V14.00,2013-03-26 21:45:00,
2013-03-26 17:00:00,67.2,28.2,30.28,NW,315,2.0,9.0,23,0.00,,,0.00,554.00,VWS V14.00,2013-03-26 22:00:00,
2013-03-26 17:15:00,67.5,27.4,30.27,NNW,338,2.0,11.0,22,0.00,,,0.00,506.00,VWS V14.00,2013-03-26 22:15:00,
2013-03-26 17:30:00,66.0,26.1,30.27,North,0,2.0,10.0,22,0.00,,,0.00,446.00,VWS V14.00,2013-03-26 22:30:00,
2013-03-26 17:45:00,66.5,27.6,30.27,North,0,2.0,7.0,23,0.00,,,0.00,389.00,VWS V14.00,2013-03-26 22:45:00,
2013-03-26 18:00:00,66.5,26.5,30.27,NNW,338,2.0,10.0,22,0.00,,,0.00,324.00,VWS V14.00,2013-03-26 23:00:00,
2013-03-26 18:15:00,64.7,26.1,30.27,NE,45,3.0,14.0,23,0.00,,,0.00,179.00,VWS V14.00,2013-03-26 23:15:00,
2013-03-26 18:30:00,64.2,26.7,30.27,North,0,1.0,7.0,24,0.00,,,0.00,108.00,VWS V14.00,2013-03-26 23:30:00,
2013-03-26 18:45:00,60.4,40.6,30.28,East,90,2.0,10.0,48,0.00,,,0.00,96.00,VWS V14.00,2013-03-26 23:45:00,
2013-03-26 19:00:00,59.5,40.3,30.28,ESE,112,3.0,9.0,49,0.00,,,0.00,73.00,VWS V14.00,2013-03-27 00:00:00,
2013-03-26 19:15:00,58.8,39.7,30.28,ESE,112,2.0,7.0,49,0.00,,,0.00,38.00,VWS V14.00,2013-03-27 00:15:00,
2013-03-26 19:30:00,58.0,40.0,30.28,ESE,112,2.0,7.0,51,0.00,,,0.00,19.00,VWS V14.00,2013-03-27 00:30:00,
2013-03-26 19:45:00,57.1,40.6,30.29,ESE,112,2.0,5.0,54,0.00,,,0.00,6.00,VWS V14.00,2013-03-27 00:45:00,
2013-03-26 20:00:00,56.4,41.4,30.29,ESE,112,1.0,4.0,57,0.00,,,0.00,0.00,VWS V14.00,2013-03-27 01:00:00,
2013-03-26 20:15:00,56.0,41.9,30.29,ESE,112,1.0,6.0,59,0.00,,,0.00,0.00,VWS V14.00,2013-03-27 01:15:00,
2013-03-26 20:30:00,55.6,42.0,30.29,ESE,121,1.0,2.0,60,0.00,,,0.00,0.00,VWS V14.00,2013-03-27 01:30:00,
2013-03-26 20:45:00,55.4,42.6,30.29,SE,135,1.0,4.0,62,0.00,,,0.00,0.00,VWS V14.00,2013-03-27 01:45:00,
2013-03-26 21:00:00,55.5,41.9,30.29,SE,135,2.0,9.0,60,0.00,,,0.00,0.00,VWS V14.00,2013-03-27 02:00:00,
2013-03-26 21:15:00,55.5,42.3,30.29,ESE,112,2.0,6.0,61,0.00,,,0.00,0.00,VWS V14.00,2013-03-27 02:15:00,
2013-03-26 21:30:00,55.3,42.5,30.30,SE,135,1.0,4.0,62,0.00,,,0.00,0.00,VWS V14.00,2013-03-27 02:30:00,
2013-03-26 21:45:00,55.3,42.9,30.30,SSE,158,1.0,5.0,63,0.00,,,0.00,0.00,VWS V14.00,2013-03-27 02:45:00,
2013-03-26 22:00:00,55.1,42.3,30.30,SE,135,1.0,4.0,62,0.00,,,0.00,0.00,VWS V14.00,2013-03-27 03:00:00,
2013-03-26 22:15:00,55.0,42.2,30.31,SE,135,1.0,4.0,62,0.00,,,0.00,0.00,VWS V14.00,2013-03-27 03:15:00,
2013-03-26 22:30:00,55.1,42.3,30.31,SE,135,1.0,3.0,62,0.00,,,0.00,0.00,VWS V14.00,2013-03-27 03:30:00,
2013-03-26 22:45:00,55.0,42.2,30.32,ESE,112,1.0,5.0,62,0.00,,,0.00,0.00,VWS V14.00,2013-03-27 03:45:00,
2013-03-26 23:00:00,55.5,42.3,30.32,SSE,158,1.0,5.0,61,0.00,,,0.00,0.00,VWS V14.00,2013-03-27 04:00:00,
2013-03-26 23:15:00,55.6,42.8,30.32,SSE,158,1.0,5.0,62,0.00,,,0.00,0.00,VWS V14.00,2013-03-27 04:15:00,
2013-03-26 23:30:00,55.5,43.1,30.32,SSE,158,1.0,4.0,63,0.00,,,0.00,0.00,VWS V14.00,2013-03-27 04:30:00,
2013-03-26 23:45:00,55.6,43.2,30.32,SSE,158,1.0,5.0,63,0.00,,,0.00,0.00,VWS V14.00,2013-03-27 04:45:00,